{"data":{"norad_id":64176,"intl_designator":"2025-113G","name":"STARLINK-34191","alt_names":[],"object_type":"PAYLOAD","status":"ACTIVE","operator":null,"country":"US","launch_date":"2025-05-28","launch_site_code":"AFETR","launch_vehicle":null,"mission":null,"orbit_class":"UNKNOWN","rcs_meters":null,"size_class":null,"mass_kg":null,"dimensions":null,"purposes":["comms"],"wikipedia_slug":null,"has_3d_model":false,"image_url":null,"decayed_at":null,"tle_current":{"epoch":"2026-09-20T16:51:31.810464Z","epoch_age_seconds":122932,"freshness":"FRESH","line1":"1 64176U 25113G   26263.70245151  .00006660  00000+0  20806-3 0  9996","line2":"2 64176  53.1596 260.9747 0001047  83.8992 276.2130 15.34400838 74986","mean_motion":15.34400838,"eccentricity":0.0001047,"inclination_deg":53.1596,"raan_deg":260.9747,"arg_perigee_deg":83.8992,"mean_anomaly_deg":276.213,"bstar":0.00020806,"rev_number":7498,"period_min":93.847706827178,"perigee_km":461.98451378327,"apogee_km":463.41698520801,"semimajor_km":6840.8377494956,"source":"CELESTRAK","updated_at":"2026-09-21T09:00:35.243874Z"}}}